"Pseudo-MPEC" for P11oQiN

Created 2021 Nov 26 4:07:08 UT using Find_Orb

Click here for an explanation of pseudo-MPECs

 
 Astrometry: 
     P11oQiN  C2020 09 13iZ^U^ABwf,_oqO%@ZKPy70Astrometry'yDeH%:JHO.W3)y+[e7@F51
     P11oQiN  C2020 09 135cIn))t3\ewcdB)2redacted;!C6Iry`(Ykcy)]hF,\Oj0Lv:j`6F51
     P11oQiN  C2020 09 13sM7=:i@OySt,WTt#`1,PuIWq=GXS@_D6^%sX.re)hr:BF)1J3-MDF51
     P11oQiN  C2020 09 13$Dk6Q1OuR3'KkjwWMe)gbO+Ea0XH7#L6H=g4l=6xPqIBaS4@\V(eF51
     P11oQiN  C2020 10 14aMK_N=US?r@S7i=h:@du=j;SFwb$ygcM*Z(7yTX,sIuj75d!k_r\F52
     P11oQiN  C2020 10 14K\wDxUCfsppSS.,-@8ZigJ[V5\N/^OZtXs6U_//bYqH@k:!5'%p7F52
     P11oQiN  C2020 10 14n,9C;QLPL,.yBd8Qj!m#soC/xSj$I(L0AIKMu!S\dR$Nj0rEWuM7F52
     P11oQiN  C2021 09 08\=jMunUG$PK)#F+V\Ibaw,KIR(DJUalY,?.N0XX[a6[lF;/Ylo*;F52
     P11oQiN  C2021 09 08Gf9LBV3hi?-xs[bQmC9)$_PBU_UGT_=VV(2oj5wTb2:%9S/=8_:mF52
     P11oQiN  C2021 09 08xIoclick,/fbiBDk/:[e)2?kx5+#N8fE+%9RWcGdL3;0K`??A^H-F52
     P11oQiN  C2021 10 14#m+lSbtkO?v.Y)fvPPHV=N[#Gx+H+bp6TIxNn'GE6ZNV$,XvbuJxF51
     P11oQiN  C2021 10 14RKxPV![rqKLtJTh+3A\awm@)KpF!uDSFv*Ww?OHkBo0e2xvI:s4WF51
     P11oQiN  C2021 10 14A*#B%!vwZ]uy2wDh@9y+n1]D4Qq*eNLJQn)RD/P$l%$%mvF[dXs.F51
     P11oQiN  C2021 11 11FJ%Qj.#n_qwlpavtSUR2WUZ.KC58w_AV6edm3$dp4KF/Y!ak2pK@F51
     P11oQiN  C2021 11 11A,0D4a]UrMt6@a:_LdMw0\VexxH'rj36T2KpoZhC/$=psB]P@HfPF51
     P11oQiN  C2021 11 113,eghere4^1!te3y[]Z#i(C_!(8*:J,Ni99VMQgNL,KBy_EYN'VhF51
     P11oQiN  C2021 11 11\VpO:LieXq.qex_'BkCngv-gU\neJ+BtZ6FIUXuc*`'(@cy2`GS\F51
     P11oQiN |C2021 11 15T@k65W:@ShTi4#yGxQ8xYoCnP);*@o$1`9B3uig?WE$w4/62i+Qf807
     P11oQiN |C2021 11 15y'I:eCcD/I]Q$K'forG8FX775RFKei0//wY#=Vfaejx=n#x;pDM-807
     P11oQiN |C2021 11 15dBn1G3W)0@'Cwxyd9?.k6o4qeXexplanationDrN/oBt0tN9^Ht'807
     P11oQiN |C2021 11 25Fr[derW6NLJE7\Cc0,X,O!#09K*AqW5BV-yF[%JZ,XZpd8VEgMD]807
     P11oQiN |C2021 11 259pAZAx6WuFNlTThJF*Lew)0d00/G#Yh^AN1u*DA8x^#:'agF^JVI807
     P11oQiN |C2021 11 254@2[Ck#[EDdW:_;_ZS]r3:3:T``Xpclju'4f*IfO3wiL8N-kf%$Z807

Station data:
(807) Cerro Tololo Observatory, La Serena  (S30.169136 W70.805900)  Chile.
(F51) Pan-STARRS 1, Haleakala  (N20.707235 W156.255910)  US/Hawaii.
   Observers N. Primak, A. Schultz, S. Watters, J. Thiel, T. Goggia. Measurer
   PS1 Science Consortium. 1.8-m Ritchey-Chrétien + CCD.
(F52) Pan-STARRS 2, Haleakala  (N20.707384 W156.255910)  US/Hawaii. 1.8-m
   Ritchey-Chrétien + CCD.

Orbital elements:  P11oQiN
   Perihelion 2021 Dec 15.345092 TT =  8:16:55 (JD 2459563.845092)
Epoch 2021 Nov 25.0 TT = JDT 2459543.5   Ju: 0.1145           AutoNEOCP
M 358.54129017                      (J2000 ecliptic)
n   0.07169836     Peri.  238.03180
a   5.73847572     Node   178.73220
e   0.1721049      Incl.   32.46408
P  13.75           H   16.0     G   0.15   q 4.75085561  Q 6.72609582
From 23 observations 2020 Sept. 13-2021 Nov. 25; mean residual 4".18
Residuals in arcseconds: 
200913 F51 10.9+  2.6-    210908 F52  .12-  .52+    211111 F51  .95+  .09-    
200913 F51 11.1+  2.7-    210908 F52  .08+  .21+    211115 807  1.1+  .23-    
200913 F51 11.0+  2.6-    211014 F51  .97+  .26+    211115 807  .77+  .38-    
200913 F51 11.0+  2.8-    211014 F51  .95+  .51+    211115 807  .88+  .22-    
201014 F52  9.2+  4.0-    211014 F51  .86+  .16+    211125 807  .32+  .28+    
201014 F52  8.9+  3.7-    211111 F51  1.0+  .06-    211125 807  .58+  .25+    
201014 F52  8.5+  3.8-    211111 F51  .88+  .09+    211125 807  .00   .01-    
210908 F52  .00   .00     211111 F51  1.1+  .12+    

Ephemerides (geocentric):
Date (UTC) HH   RA              Dec         delta   r     elong  mag
---- -- -- --  -------------   -----------  ------ ------ -----  ---
2021 11 26 04  03 31 29.252   -14 40 50.92  3.9228 4.7513 143.3 22.8
2021 11 26 05  03 31 28.015   -14 40 56.72  3.9230 4.7513 143.3 22.8
2021 11 26 06  03 31 26.778   -14 41 02.50  3.9232 4.7513 143.3 22.8
2021 11 26 07  03 31 25.542   -14 41 08.26  3.9234 4.7513 143.3 22.8
2021 11 26 08  03 31 24.306   -14 41 14.01  3.9235 4.7513 143.3 22.8
2021 11 26 09  03 31 23.071   -14 41 19.74  3.9237 4.7513 143.2 22.8
2021 11 26 10  03 31 21.836   -14 41 25.45  3.9239 4.7513 143.2 22.8
2021 11 26 11  03 31 20.601   -14 41 31.15  3.9241 4.7513 143.2 22.8
2021 11 26 12  03 31 19.367   -14 41 36.83  3.9243 4.7513 143.2 22.8
2021 11 26 13  03 31 18.133   -14 41 42.49  3.9245 4.7513 143.2 22.8
2021 11 26 14  03 31 16.900   -14 41 48.14  3.9247 4.7513 143.1 22.8
2021 11 26 15  03 31 15.666   -14 41 53.77  3.9249 4.7513 143.1 22.8
2021 11 26 16  03 31 14.434   -14 41 59.38  3.9250 4.7513 143.1 22.8
2021 11 26 17  03 31 13.201   -14 42 04.97  3.9252 4.7512 143.1 22.8
2021 11 26 18  03 31 11.969   -14 42 10.55  3.9254 4.7512 143.0 22.8
2021 11 26 19  03 31 10.738   -14 42 16.11  3.9256 4.7512 143.0 22.8
2021 11 26 20  03 31 09.506   -14 42 21.66  3.9258 4.7512 143.0 22.8
2021 11 26 21  03 31 08.275   -14 42 27.19  3.9260 4.7512 143.0 22.8
2021 11 26 22  03 31 07.045   -14 42 32.70  3.9262 4.7512 143.0 22.8
2021 11 26 23  03 31 05.815   -14 42 38.19  3.9264 4.7512 142.9 22.8
2021 11 27 00  03 31 04.585   -14 42 43.67  3.9266 4.7512 142.9 22.8
2021 11 27 01  03 31 03.356   -14 42 49.13  3.9268 4.7512 142.9 22.8
2021 11 27 02  03 31 02.127   -14 42 54.58  3.9269 4.7512 142.9 22.8
2021 11 27 03  03 31 00.899   -14 43 00.00  3.9271 4.7512 142.9 22.8
2021 11 27 04  03 30 59.671   -14 43 05.41  3.9273 4.7512 142.8 22.8
2021 11 27 05  03 30 58.443   -14 43 10.81  3.9275 4.7512 142.8 22.8
2021 11 27 06  03 30 57.216   -14 43 16.18  3.9277 4.7512 142.8 22.8
2021 11 27 07  03 30 55.989   -14 43 21.54  3.9279 4.7512 142.8 22.8
2021 11 27 08  03 30 54.762   -14 43 26.88  3.9281 4.7512 142.7 22.8
2021 11 27 09  03 30 53.536   -14 43 32.21  3.9283 4.7512 142.7 22.8
2021 11 27 10  03 30 52.311   -14 43 37.52  3.9285 4.7512 142.7 22.8
2021 11 27 11  03 30 51.086   -14 43 42.81  3.9287 4.7512 142.7 22.8
2021 11 27 12  03 30 49.861   -14 43 48.09  3.9289 4.7512 142.7 22.8
2021 11 27 13  03 30 48.636   -14 43 53.34  3.9291 4.7512 142.6 22.8
2021 11 27 14  03 30 47.412   -14 43 58.58  3.9293 4.7512 142.6 22.8
2021 11 27 15  03 30 46.189   -14 44 03.81  3.9295 4.7512 142.6 22.8
2021 11 27 16  03 30 44.966   -14 44 09.02  3.9297 4.7512 142.6 22.8
2021 11 27 17  03 30 43.743   -14 44 14.21  3.9299 4.7512 142.5 22.8
2021 11 27 18  03 30 42.521   -14 44 19.38  3.9301 4.7512 142.5 22.8
2021 11 27 19  03 30 41.299   -14 44 24.54  3.9303 4.7512 142.5 22.8
2021 11 27 20  03 30 40.078   -14 44 29.68  3.9305 4.7512 142.5 22.8
2021 11 27 21  03 30 38.857   -14 44 34.80  3.9307 4.7512 142.5 22.8
2021 11 27 22  03 30 37.636   -14 44 39.91  3.9309 4.7512 142.4 22.8
2021 11 27 23  03 30 36.416   -14 44 45.00  3.9311 4.7512 142.4 22.8
2021 11 28 00  03 30 35.197   -14 44 50.07  3.9313 4.7512 142.4 22.8
2021 11 28 01  03 30 33.977   -14 44 55.12  3.9315 4.7512 142.4 22.8
2021 11 28 02  03 30 32.759   -14 45 00.16  3.9317 4.7512 142.3 22.8
2021 11 28 03  03 30 31.540   -14 45 05.18  3.9319 4.7512 142.3 22.8